EZY51KG EGGP-LEAL

Flight info

Callsign EZY51KG
Flight time N/A
Altitude 37000
Route NANTI L8 STAFA P18 TELBA L151 KIDLI UN859 SOPIL DCT BALAN DCT LMG DCT PIMQO DCT AGN DCT ANETO DCT POSSY DCT XIMPE DCT RIMES N860 VLC
Aircraft A320/M-SDE2E3FGHIJ1RWXYZ/LB1

Departure

Time N/A
Airport Liverpool John Lennon Airport (EGGP)

Arrival

Time 2026-04-27 22:09
Airport Alicante-Elche Miguel Hernández Airport (LEAL)
Time Latitude Longitude Altitude Speed Heading
2026-04-27 21:16 43.21217 0.69374 37117 ft 430 kts 193°
2026-04-27 21:17 43.18278 0.68599 37127 ft 430 kts 193°
2026-04-27 21:17 43.12402 0.67045 37129 ft 430 kts 193°
2026-04-27 21:18 43.06515 0.65513 37137 ft 431 kts 193°
2026-04-27 21:18 43.00618 0.63985 37117 ft 433 kts 191°
2026-04-27 21:19 42.94640 0.62436 37132 ft 440 kts 191°
2026-04-27 21:19 42.88619 0.60866 37137 ft 441 kts 191°
2026-04-27 21:20 42.79602 0.58518 37149 ft 442 kts 191°
2026-04-27 21:20 42.73555 0.56951 37159 ft 443 kts 191°
2026-04-27 21:21 42.67625 0.54783 37165 ft 441 kts 205°
2026-04-27 21:21 42.62077 0.51230 37168 ft 441 kts 206°
2026-04-27 21:22 42.56529 0.47668 37169 ft 441 kts 206°
2026-04-27 21:22 42.50981 0.44121 37173 ft 441 kts 206°
2026-04-27 21:23 42.45432 0.40584 37179 ft 441 kts 206°
2026-04-27 21:23 42.39881 0.37061 37166 ft 440 kts 206°
2026-04-27 21:24 42.34336 0.33541 37158 ft 440 kts 206°
2026-04-27 21:24 42.28789 0.30022 37151 ft 440 kts 206°
2026-04-27 21:25 42.23241 0.26510 37147 ft 441 kts 206°
2026-04-27 21:25 42.17692 0.23002 37139 ft 441 kts 205°
2026-04-27 21:26 42.12135 0.19506 37133 ft 441 kts 205°
2026-04-27 21:26 42.06501 0.16246 37127 ft 441 kts 197°
2026-04-27 21:27 42.00455 0.14871 37117 ft 441 kts 186°
2026-04-27 21:27 41.94351 0.13963 37108 ft 442 kts 186°
2026-04-27 21:28 41.88231 0.13046 37110 ft 443 kts 186°
2026-04-27 21:28 41.82108 0.12120 37110 ft 443 kts 186°
2026-04-27 21:29 41.75979 0.11208 37110 ft 443 kts 186°
2026-04-27 21:29 41.69889 0.10309 37108 ft 443 kts 186°
2026-04-27 21:30 41.63754 0.09401 37109 ft 444 kts 186°
2026-04-27 21:30 41.57618 0.08492 37104 ft 444 kts 186°
2026-04-27 21:31 41.51479 0.07572 37101 ft 444 kts 186°
2026-04-27 21:31 41.45346 0.06667 37101 ft 444 kts 186°
2026-04-27 21:32 41.39207 0.05770 37103 ft 444 kts 186°
2026-04-27 21:32 41.33074 0.04861 37099 ft 443 kts 187°
2026-04-27 21:33 41.26944 0.03956 37107 ft 443 kts 187°
2026-04-27 21:33 41.20816 0.03060 37108 ft 443 kts 187°
2026-04-27 21:34 41.14693 0.02167 37107 ft 443 kts 187°
2026-04-27 21:34 41.08568 0.01270 37114 ft 443 kts 187°
2026-04-27 21:35 41.02490 0.00379 37119 ft 443 kts 187°
2026-04-27 21:35 40.96365 -0.00515 37119 ft 443 kts 187°
2026-04-27 21:36 40.90242 -0.01397 37148 ft 442 kts 188°
2026-04-27 21:36 40.84224 -0.02271 37159 ft 430 kts 189°
2026-04-27 21:37 40.78302 -0.03139 37160 ft 428 kts 189°
2026-04-27 21:37 40.72392 -0.03998 37169 ft 427 kts 189°
2026-04-27 21:38 40.66481 -0.04851 37168 ft 427 kts 189°
2026-04-27 21:38 40.60571 -0.05703 37167 ft 427 kts 189°
2026-04-27 21:39 40.54707 -0.06820 37151 ft 424 kts 198°
2026-04-27 21:39 40.49067 -0.09049 37126 ft 423 kts 199°
2026-04-27 21:40 40.43432 -0.11292 37087 ft 423 kts 199°
2026-04-27 21:40 40.37797 -0.13522 37076 ft 423 kts 199°
2026-04-27 21:41 40.32154 -0.15742 37061 ft 423 kts 199°
2026-04-27 21:41 40.29328 -0.16854 36875 ft 424 kts 199°
2026-04-27 21:41 40.26503 -0.17966 36616 ft 424 kts 199°
2026-04-27 21:42 40.23678 -0.19081 36353 ft 424 kts 199°
2026-04-27 21:42 40.20848 -0.20198 36104 ft 425 kts 199°
2026-04-27 21:42 40.18016 -0.21311 35857 ft 425 kts 199°
2026-04-27 21:42 40.15190 -0.22419 35622 ft 423 kts 199°
2026-04-27 21:43 40.12410 -0.23509 35397 ft 422 kts 199°
2026-04-27 21:43 40.09567 -0.24622 35155 ft 421 kts 199°
2026-04-27 21:43 40.06804 -0.25704 34972 ft 419 kts 199°
2026-04-27 21:43 40.04015 -0.26795 34730 ft 418 kts 199°
2026-04-27 21:44 40.01236 -0.27879 34477 ft 416 kts 198°
2026-04-27 21:44 39.98465 -0.28960 34240 ft 415 kts 198°
2026-04-27 21:44 39.95704 -0.30037 33977 ft 413 kts 198°
2026-04-27 21:44 39.92959 -0.31110 33702 ft 412 kts 198°
2026-04-27 21:45 39.90220 -0.32181 33418 ft 410 kts 198°
2026-04-27 21:45 39.87494 -0.33246 33148 ft 408 kts 198°
2026-04-27 21:45 39.84776 -0.34307 32877 ft 407 kts 198°
2026-04-27 21:45 39.82071 -0.35357 32607 ft 405 kts 198°
2026-04-27 21:46 39.79370 -0.36402 32336 ft 404 kts 198°
2026-04-27 21:46 39.76683 -0.37440 32084 ft 402 kts 198°
2026-04-27 21:46 39.74007 -0.38475 31812 ft 401 kts 198°
2026-04-27 21:46 39.71339 -0.39508 31554 ft 399 kts 198°
2026-04-27 21:47 39.68682 -0.40537 31303 ft 398 kts 198°
2026-04-27 21:47 39.66033 -0.41561 31050 ft 396 kts 198°
2026-04-27 21:47 39.63399 -0.42578 30616 ft 393 kts 198°
2026-04-27 21:47 39.60789 -0.43585 30156 ft 390 kts 198°
2026-04-27 21:48 39.58198 -0.44586 29626 ft 387 kts 198°
2026-04-27 21:48 39.55623 -0.45578 29126 ft 384 kts 198°
2026-04-27 21:48 39.53074 -0.46558 28639 ft 381 kts 198°
2026-04-27 21:48 39.50530 -0.47437 28168 ft 378 kts 192°
2026-04-27 21:49 39.47919 -0.47768 27698 ft 376 kts 181°
2026-04-27 21:49 39.45321 -0.47484 27224 ft 375 kts 171°
2026-04-27 21:49 39.42771 -0.46828 26789 ft 372 kts 170°
2026-04-27 21:49 39.40243 -0.46179 26379 ft 369 kts 171°
2026-04-27 21:50 39.37731 -0.45543 25954 ft 367 kts 171°
2026-04-27 21:50 39.35237 -0.44919 25572 ft 364 kts 171°
2026-04-27 21:50 39.32759 -0.44302 25140 ft 361 kts 171°
2026-04-27 21:50 39.30302 -0.43690 24712 ft 359 kts 171°
2026-04-27 21:51 39.27858 -0.43078 24297 ft 356 kts 171°
2026-04-27 21:51 39.26252 -0.42673 24031 ft 355 kts 171°
2026-04-27 21:51 39.23837 -0.42066 23606 ft 352 kts 171°
2026-04-27 21:51 39.20635 -0.41265 22993 ft 349 kts 171°
2026-04-27 21:52 39.19060 -0.40871 22699 ft 347 kts 171°
2026-04-27 21:52 39.16696 -0.40280 22266 ft 345 kts 171°
2026-04-27 21:52 39.14347 -0.39693 21828 ft 343 kts 171°
2026-04-27 21:52 39.12017 -0.39111 21395 ft 340 kts 171°
2026-04-27 21:53 39.09698 -0.38531 20952 ft 339 kts 171°
2026-04-27 21:53 39.07390 -0.37952 20529 ft 337 kts 171°
2026-04-27 21:53 39.05097 -0.37381 20123 ft 335 kts 171°
2026-04-27 21:53 39.02819 -0.36814 19651 ft 331 kts 171°
2026-04-27 21:54 39.00570 -0.36252 18980 ft 328 kts 171°
2026-04-27 21:54 38.98343 -0.35695 18347 ft 325 kts 171°
2026-04-27 21:54 38.96130 -0.35142 17618 ft 322 kts 171°
2026-04-27 21:54 38.93938 -0.34595 16926 ft 320 kts 171°
2026-04-27 21:55 38.91766 -0.34053 16265 ft 317 kts 171°
2026-04-27 21:55 38.89607 -0.33518 15622 ft 315 kts 171°
2026-04-27 21:55 38.87463 -0.32985 14970 ft 313 kts 171°
2026-04-27 21:55 38.85320 -0.32453 14430 ft 315 kts 171°
2026-04-27 21:56 38.83172 -0.31921 14112 ft 314 kts 171°
2026-04-27 21:56 38.78931 -0.30869 13451 ft 311 kts 171°
2026-04-27 21:56 38.76783 -0.30337 13110 ft 309 kts 171°
2026-04-27 21:57 38.74707 -0.29821 12787 ft 307 kts 170°
2026-04-27 21:57 38.72614 -0.29300 12459 ft 305 kts 170°
2026-04-27 21:57 38.70510 -0.28777 12137 ft 303 kts 170°
2026-04-27 21:57 38.68445 -0.28265 11824 ft 301 kts 170°
2026-04-27 21:58 38.66397 -0.27761 11627 ft 299 kts 170°
2026-04-27 21:58 38.64387 -0.27268 11237 ft 297 kts 170°
2026-04-27 21:58 38.62330 -0.26761 10993 ft 296 kts 170°
2026-04-27 21:58 38.60308 -0.26261 10753 ft 295 kts 169°
2026-04-27 21:59 38.58298 -0.25766 10511 ft 294 kts 169°
2026-04-27 21:59 38.56323 -0.25280 10277 ft 292 kts 169°
2026-04-27 21:59 38.54339 -0.24792 10049 ft 290 kts 169°
2026-04-27 21:59 38.52370 -0.24307 9880 ft 288 kts 169°
2026-04-27 22:00 38.50406 -0.23824 9748 ft 287 kts 169°
2026-04-27 22:00 38.48443 -0.23343 9614 ft 287 kts 169°
2026-04-27 22:00 38.46481 -0.22932 9479 ft 285 kts 175°
2026-04-27 22:00 38.44498 -0.22894 9350 ft 286 kts 180°
2026-04-27 22:01 38.42512 -0.22891 9221 ft 285 kts 179°
2026-04-27 22:01 38.40545 -0.22884 9002 ft 276 kts 179°
2026-04-27 22:01 38.38700 -0.22804 8872 ft 255 kts 171°
2026-04-27 22:01 38.37021 -0.22364 8608 ft 241 kts 166°
2026-04-27 22:02 38.35402 -0.21899 8171 ft 236 kts 166°
2026-04-27 22:02 38.33806 -0.21440 7687 ft 234 kts 166°
2026-04-27 22:02 38.32221 -0.20986 7208 ft 233 kts 166°
2026-04-27 22:02 38.30628 -0.20723 6832 ft 229 kts 180°
2026-04-27 22:03 38.29103 -0.21028 6707 ft 216 kts 193°
2026-04-27 22:03 38.27678 -0.21511 6441 ft 210 kts 192°
2026-04-27 22:03 38.26272 -0.21979 6087 ft 208 kts 192°
2026-04-27 22:03 38.24978 -0.22610 5972 ft 193 kts 213°
2026-04-27 22:04 38.24154 -0.23853 5838 ft 180 kts 244°
2026-04-27 22:04 38.23947 -0.25382 5643 ft 175 kts 276°
2026-04-27 22:04 38.24175 -0.26887 5349 ft 178 kts 282°
2026-04-27 22:04 38.24410 -0.28430 5051 ft 175 kts 281°
2026-04-27 22:05 38.24619 -0.29940 4787 ft 172 kts 279°
2026-04-27 22:05 38.24803 -0.31431 4490 ft 170 kts 279°
2026-04-27 22:05 38.24972 -0.32916 4192 ft 169 kts 278°
2026-04-27 22:05 38.25122 -0.34371 3964 ft 164 kts 278°
2026-04-27 22:06 38.25255 -0.35793 3707 ft 161 kts 278°
2026-04-27 22:06 38.25458 -0.37281 3165 ft 176 kts 282°
2026-04-27 22:06 38.25696 -0.38788 2898 ft 170 kts 282°
2026-04-27 22:06 38.25902 -0.40252 2631 ft 166 kts 283°
2026-04-27 22:07 38.26145 -0.41675 2383 ft 163 kts 285°
2026-04-27 22:07 38.26403 -0.43063 2151 ft 160 kts 286°
2026-04-27 22:07 38.26675 -0.44422 1940 ft 158 kts 285°
2026-04-27 22:07 38.26883 -0.45786 1716 ft 157 kts 279°
2026-04-27 22:08 38.27024 -0.47154 1508 ft 155 kts 280°
2026-04-27 22:08 38.27171 -0.48499 1279 ft 156 kts 280°
2026-04-27 22:08 38.27333 -0.49873 930 ft 158 kts 281°
2026-04-27 22:08 38.27528 -0.51225 726 ft 153 kts 283°
2026-04-27 22:09 38.27751 -0.52566 352 ft 158 kts 284°
2026-04-27 22:09 38.27952 -0.53923 142 ft 152 kts 281°
2026-04-27 22:09 38.28134 -0.55183 83 ft 131 kts 283°
2026-04-27 22:09 38.28247 -0.55955 107 ft 45 kts 279°
2026-04-27 22:10 38.28267 -0.56106 111 ft 23 kts 280°
2026-04-27 22:10 38.28288 -0.56257 114 ft 27 kts 279°
2026-04-27 22:10 38.28326 -0.56564 114 ft 23 kts 279°
2026-04-27 22:10 38.28377 -0.56742 122 ft 21 kts 298°
2026-04-27 22:11 38.28454 -0.56877 128 ft 12 kts 313°
2026-04-27 22:11 38.28501 -0.56938 134 ft 7 kts 321°
2026-04-27 22:11 38.28539 -0.56927 133 ft 7 kts 46°
2026-04-27 22:11 38.28541 -0.56854 127 ft 10 kts 99°
2026-04-27 22:12 38.28525 -0.56747 120 ft 14 kts 101°
2026-04-27 22:12 38.28505 -0.56609 120 ft 18 kts 101°
2026-04-27 22:12 38.28483 -0.56449 115 ft 20 kts 98°
2026-04-27 22:12 38.28458 -0.56270 110 ft 23 kts 99°
2026-04-27 22:13 38.28433 -0.56080 108 ft 20 kts 101°
2026-04-27 22:13 38.28409 -0.55909 105 ft 21 kts 99°
2026-04-27 22:13 38.28386 -0.55742 102 ft 19 kts 100°
2026-04-27 22:13 38.28394 -0.55609 100 ft 11 kts 28°
2026-04-27 22:14 38.28476 -0.55580 96 ft 12 kts 38°
2026-04-27 22:14 38.28478 -0.55476 94 ft 12 kts 99°
2026-04-27 22:14 38.28467 -0.55393 93 ft 8 kts 99°
2026-04-27 22:14 38.28455 -0.55384 95 ft 0 kts 229°
2026-04-27 22:15 38.28465 -0.55427 94 ft 12 kts 299°
2026-04-27 22:15 38.28484 -0.55506 96 ft 8 kts 280°
2026-04-27 22:15 38.28519 -0.55521 93 ft 6 kts 25°
2026-04-27 22:15 38.28535 -0.55512 93 ft 3 kts 18°
2026-04-27 22:16 38.28562 -0.55505 93 ft 3 kts
2026-04-27 22:16 38.28563 -0.55505 91 ft 0 kts